ELEKTRO-L 3

Last updated on Tue Sep 22 2026 00:03:02 GMT+0000 (Coordinated Universal Time)

1 44903U 19095A 26264.49877740 .00000110 00000+0 00000+0 0 9990 2 44903 0.4979 82.3399 0003138 74.8135 71.9333 0.99407479 24672
UTC large
Height (km)
Speed (km/s)
/
Latitude / Longitude
Inclination (degrees)
Orbital Period (minutes)
Azimuth
Elevation
Range (km)
Doppler Factor

Next 0 passes for location: London (51.5072 / 0.1276)

No passes found over London.
ELEKTRO-L 3